Voltar ao catálogo

BREEZE-M DEB

LostHEO
NORAD 48530·DEBRIS·🇷🇺 Russia

Lançado Feb 28, 2006 de Baikonur Cosmodrome

Loading…

Próximas Passagens (próximas 24 horas)

TLE

ObsoletoSource: Space-Track

Época: Jun 19, 2021, 00:55 UTC

1 48530U 06006DM  21170.03872854  .00002994  00000-0  27670-2 0  9998
2 48530  51.6514 311.6059 5026449 196.1426 139.0783  5.40870847114110

Acompanhe BREEZE-M DEB em tempo real com AllMySat

Download on the App Store